ContactaLinksHome
    
DADES METEOROLÒGIQUES DE LES ÚLTIMES 24 HORES
 

Taire  Temperatura de l'aire  (ºC)
HumitatR  Humitat relativa de l'aire (%)
Pluja  Litres de pluja per metre cuadrat caiguts en 10 minuts (l/m²)
VelVent  Velocitat mitjana del vent (m/s)
DirVent  Direcció del vent  (º)
RadSolar  Intensitat de Radiació solar (w/m²)
PressAtm  Pressió atmosfèrica (mb)
  ***Dades sense verificar
DataTaireHumitatRPlujaVelVentDirVentRadSolarPressAtm
24/03/2017 12:00:0010.8780,13.3481991015
24/03/2017 11:50:0010.9770,12.5531641015
24/03/2017 11:40:0010.9770,12.6421381015
24/03/2017 11:30:0010.9770,13.3611241015
24/03/2017 11:20:0010.8760,24.1561121015
24/03/2017 11:10:0010.9760,15.1571071015
24/03/2017 11:00:0011.0750,24.2551121015
24/03/2017 10:50:0011.2740,14.0411251015
24/03/2017 10:40:0011.2740,14.9491311015
24/03/2017 10:30:0011.3720,05.2711221015
24/03/2017 10:20:0011.5710,05.773891015
24/03/2017 10:10:0011.9690,06.071861015
24/03/2017 10:00:0012.1650,05.069771015
24/03/2017 9:50:0012.2600,03.875811015
24/03/2017 9:40:0012.3570,03.173981015
24/03/2017 9:30:0012.3550,02.981581015
24/03/2017 9:20:0012.4530,03.561491015
24/03/2017 9:10:0012.5540,03.043501015
24/03/2017 9:00:0012.5540,02.552631015
24/03/2017 8:50:0012.5550,02.355841015
24/03/2017 8:40:0012.4560,02.962691015
24/03/2017 8:30:0012.4550,02.351621015
24/03/2017 8:20:0012.4570,01.633651015
24/03/2017 8:10:0012.4560,02.046821015
24/03/2017 8:00:0012.4580,02.0441031015
24/03/2017 7:50:0012.3570,0 21941015
24/03/2017 7:40:0012.2570,02.450641014
24/03/2017 7:30:0011.7580,00.736351014
24/03/2017 7:20:0011.3570,01.0275271015
24/03/2017 7:10:0011.2570,01.3293341014
24/03/2017 7:00:0011.6570,01.4299321014
24/03/2017 6:50:0011.6580,01.0336381014
24/03/2017 6:40:0011.2560,01.2309301014
24/03/2017 6:30:0011.1560,01.5325201014
24/03/2017 6:20:0010.9570,01.3339101014
24/03/2017 6:10:0010.9570,01.829541014
24/03/2017 6:00:0011.3570,01.529011013
24/03/2017 5:50:0011.4560,01.232401013
24/03/2017 5:40:0011.2560,01.733701013
24/03/2017 5:30:0011.1560,01.831001013
24/03/2017 5:20:0011.0570,01.431701013
24/03/2017 5:10:0011.1560,00.931601014
24/03/2017 5:00:0011.1560,01.133301013
24/03/2017 4:50:0011.0550,01.129301013
24/03/2017 4:40:0010.9560,01.028601013
24/03/2017 4:30:0010.9570,01.327701013
24/03/2017 4:20:0010.8580,01.228101013
24/03/2017 4:10:0011.0570,01.227101013
24/03/2017 4:00:0011.0580,01.231201013
24/03/2017 3:50:0010.8580,01.133101013
24/03/2017 3:40:0010.7590,01.433601013
24/03/2017 3:30:0010.5600,01.032901013
24/03/2017 3:20:0010.4600,00.932101013
24/03/2017 3:10:0010.4600,01.227101013
24/03/2017 3:00:0010.4600,01.232301013
24/03/2017 2:50:0010.5600,02.130501013
24/03/2017 2:40:0010.6590,01.830401013
24/03/2017 2:30:0010.6590,01.531601013
24/03/2017 2:20:0010.8580,01.525501013
24/03/2017 2:10:0010.9580,00.725601013
24/03/2017 2:00:0010.9580,01.531201013
24/03/2017 1:50:0011.2570,01.330701013
24/03/2017 1:40:0011.2560,01.328901013
24/03/2017 1:30:0011.3570,01.133001013
24/03/2017 1:20:0011.3560,00.734401013
24/03/2017 1:10:0011.3560,00.830301013
24/03/2017 1:00:0011.3550,01.433001013
24/03/2017 0:50:0011.5550,01.034501013
24/03/2017 0:40:0011.7540,01.333301014
24/03/2017 0:30:0011.7540,01.629201014
24/03/2017 0:20:0011.7540,01.832001013
24/03/2017 0:10:0011.6530,02.032401013
24/03/2017 0:00:0011.6540,02.132101013
23/03/2017 23:50:0011.7530,02.133401013
23/03/2017 23:40:0011.8530,01.532801013
23/03/2017 23:30:0011.7540,01.732201013
23/03/2017 23:20:0011.5540,02.434101013
23/03/2017 23:10:0011.7530,02.233501013
23/03/2017 23:00:0012.0530,02.133501013
23/03/2017 22:50:0012.1520,01.234501013
23/03/2017 22:40:0012.1520,01.534201013
23/03/2017 22:30:0012.3510,01.6301013
23/03/2017 22:20:0012.7510,01.534301013
23/03/2017 22:10:0012.8500,01.023801013
23/03/2017 22:00:0012.8490,01.222201013
23/03/2017 21:50:0012.9500,01.623001013
23/03/2017 21:40:0012.9490,01.824001013
23/03/2017 21:30:0013.0480,01.624901013
23/03/2017 21:20:0013.0470,01.826101013
23/03/2017 21:10:0013.0480,02.023601013
23/03/2017 21:00:0013.0470,02.423901013
23/03/2017 20:50:0013.1470,02.722501013
23/03/2017 20:40:0013.1470,03.022501013
23/03/2017 20:30:0013.1460,03.324001012
23/03/2017 20:20:0013.2450,03.521101012
23/03/2017 20:10:0013.2450,02.823601012
23/03/2017 20:00:0013.2470,03.423401012
23/03/2017 19:50:0013.2460,03.024301012
23/03/2017 19:40:0013.2460,04.220701012
23/03/2017 19:30:0013.2470,04.921801012
23/03/2017 19:20:0013.2480,05.422101012
23/03/2017 19:10:0013.2480,05.820901011
23/03/2017 19:00:0013.2500,05.921001011
23/03/2017 18:50:0013.2500,06.020701011
23/03/2017 18:40:0013.2500,06.020301011
23/03/2017 18:30:0013.2490,06.320701011
23/03/2017 18:20:0013.2500,06.120601010
23/03/2017 18:10:0013.2490,06.821421010
23/03/2017 18:00:0013.3510,06.6215101010
23/03/2017 17:50:0013.3510,06.7212251010
23/03/2017 17:40:0013.3510,07.0219391010
23/03/2017 17:30:0013.3500,07.8211521010
23/03/2017 17:20:0013.4520,07.5213631010
23/03/2017 17:10:0013.4480,07.4214741010
23/03/2017 17:00:0013.4470,07.8216811010
23/03/2017 16:50:0013.4490,07.9211821009
23/03/2017 16:40:0013.4510,07.8205931009
23/03/2017 16:30:0013.4500,08.12011121009
23/03/2017 16:20:0013.4500,08.12021401009
23/03/2017 16:10:0013.5490,08.22031561009
23/03/2017 16:00:0013.5490,08.12011911009
23/03/2017 15:50:0013.6490,08.32102041009
23/03/2017 15:40:0013.6500,08.22003001009
23/03/2017 15:30:0013.6530,08.82033241009
23/03/2017 15:20:0013.5540,09.41973881009
23/03/2017 15:10:0013.5550,09.62003291009
23/03/2017 15:00:0013.6540,09.42002951009
23/03/2017 14:50:0013.5550,08.32003621009
23/03/2017 14:40:0013.4560,07.61943971009
23/03/2017 14:30:0013.4540,07.62044661009
23/03/2017 14:20:0013.3580,07.42055061009
23/03/2017 14:10:0013.5550,07.32034431008
23/03/2017 14:00:0013.6540,07.61964811008
23/03/2017 13:50:0013.6560,07.41895231009
23/03/2017 13:40:0013.6570,07.01875531009
23/03/2017 13:30:0014.4550,06.51872361009
23/03/2017 13:20:0014.8440,03.92114961009
23/03/2017 13:10:0014.8370,02.22765851009
23/03/2017 13:00:0014.7380,03.52265351009
23/03/2017 12:50:0014.8370,02.82364071009
23/03/2017 12:40:0014.8350,03.72785991009
23/03/2017 12:30:0014.9340,04.02777301009
23/03/2017 12:20:0014.9360,04.23316851009
23/03/2017 12:10:0014.9370,04.63197241009

ÚLTIMES FOTOS WEBCAM
Imatges del Pont
ÚLTIMES DADES

24/03/2017  
13:00h Local  (12:00 GMT)
 
 Velocitat mitjana del Vent
   3,3 m/s
 Direcció del Vent
   48º
 Humitat Relativa
   78 %
 Temperatura Aparent
   10,8 ºC
 Pluja Acumulada
   1,1 l/m²
      
 Temperatura de l'aigua    N/A
 Alçada d'ona    N/A
 Direcció d'ona    N/A
 Velocitat del corrent    N/A
 Direcció del corrent    N/A